Theta_e
285 284 283 283 282 282 281 282 278 281 283 286 279 278 279 282 281 281 281 282 282 283 283 284 284 285 286 286 286 286 285 285 285 285 285 285 284 283 283 283 283 283 282 282
277 280 280 278 280 280 280 280 281 283 281 279 279 280 279 281 280 279 280 282 283 283 283 283 283 284 284 285 285 285 284 284 285 285 284 283 283 283 282 281 282 282 281 281
270 277 273 269 274 276 277 278 277 275 274 277 276 277 278 279 281 280 279 280 281 282 282 282 283 284 283 284 285 284 284 284 284 284 283 283 282 281 282 281 281 281 281 280
268 264 257 273 277 276 276 275 276 275 275 276 277 278 278 280 279 278 279 280 281 281 282 282 283 283 284 284 283 283 283 284 284 283 282 282 280 281 281 281 281 280 280 280
261 257 270 274 273 271 270 271 274 275 278 278 278 277 275 279 280 279 279 280 280 281 281 281 281 281 281 281 281 281 282 283 282 281 281 281 280 279 280 280 279 280 280 280
259 265 259 270 272 276 275 262 272 273 273 272 276 267 272 277 279 279 280 280 279 280 279 279 279 280 279 278 278 279 281 282 283 281 279 278 279 278 279 279 279 279 279 279
264 261 264 273 275 276 262 265 272 274 275 276 274 273 277 278 277 278 278 278 278 277 276 278 279 279 277 276 276 278 280 278 278 280 281 279 277 274 274 277 277 277 276 276
253 255 257 273 273 268 272 277 275 277 277 276 276 277 277 276 276 275 275 275 275 274 275 276 277 276 274 274 276 277 275 275 276 280 282 280 276 275 276 276 274 271 273 272
265 264 274 274 276 279 279 277 277 277 278 276 276 274 275 274 274 275 274 274 274 272 272 273 274 273 271 273 273 272 272 272 273 273 275 280 277 276 275 275 273 272 272 271
271 274 275 277 279 278 278 277 279 278 275 275 273 274 274 274 274 273 273 272 272 271 270 270 271 271 270 270 270 268 268 268 270 270 273 277 277 277 276 275 274 274 273 272
272 275 276 277 278 278 279 278 276 275 275 273 272 272 273 272 271 271 271 271 271 269 269 268 269 268 267 267 266 265 265 265 266 268 269 272 277 276 276 276 277 275 275 274
270 276 275 276 279 277 276 275 273 272 271 272 272 270 270 269 269 269 268 269 267 267 266 265 265 264 264 264 263 262 262 263 264 266 266 269 272 275 279 280 280 281 281 277
276 279 278 278 275 272 271 271 271 270 269 268 268 268 267 267 267 266 266 265 264 263 263 262 261 261 261 261 261 260 260 261 262 263 265 266 269 273 273 275 281 281 281 281
274 272 274 272 270 269 269 268 267 266 266 266 266 265 265 264 263 262 262 262 261 260 259 259 258 258 259 260 259 259 260 261 261 262 263 265 267 270 273 272 271 275 280 281
267 268 267 267 267 266 266 265 262 263 263 263 263 262 261 260 259 259 259 259 258 258 257 257 257 257 259 259 259 259 260 261 262 263 264 265 267 270 272 272 271 273 274 278
264 265 263 262 262 262 261 261 260 260 261 260 259 259 259 258 257 257 257 257 256 256 257 257 257 258 259 260 260 260 260 261 262 262 263 264 265 269 270 270 270 272 272 274
260 259 257 257 258 259 259 259 259 259 259 257 256 256 256 255 255 256 258 258 258 258 258 258 258 260 260 259 259 259 260 260 261 262 263 265 266 269 269 269 269 270 272 274
257 258 258 257 257 257 257 258 257 257 255 255 255 254 254 255 256 256 256 256 257 257 258 259 259 260 261 261 261 261 261 263 263 264 265 266 269 269 269 268 269 270 271 273
255 256 257 257 257 256 255 254 254 255 255 254 254 254 257 257 256 256 256 256 255 255 257 259 263 262 260 261 263 263 263 264 267 267 267 268 268 268 268 268 269 269 270 267
253 254 254 254 254 254 253 253 252 252 252 253 255 256 256 257 256 255 256 255 256 257 258 258 260 261 261 261 263 262 263 263 264 265 266 265 265 264 265 266 267 263 262 261
250 251 252 252 252 252 252 252 251 250 253 255 256 256 256 257 256 256 255 254 256 257 258 259 260 261 261 261 261 261 261 261 262 262 262 263 263 263 263 261 261 261 260 259
249 249 250 250 249 249 249 248 249 252 254 256 257 257 256 255 255 256 257 255 257 257 258 258 260 261 260 261 260 260 260 260 260 260 261 261 261 261 260 260 259 259 259 259
246 245 247 246 247 248 248 249 251 254 255 256 256 256 256 255 255 254 253 257 257 258 257 258 260 260 259 258 258 258 258 258 259 259 259 259 259 259 259 258 258 258 258 258
242 244 243 245 245 244 246 252 253 256 257 257 257 257 256 255 256 257 257 257 257 257 256 258 259 261 258 257 257 257 257 257 258 258 258 258 258 258 258 258 257 257 257 257
244 244 240 244 247 250 252 255 256 257 257 257 257 257 257 258 256 257 256 256 257 256 256 257 259 258 256 255 255 255 255 256 256 256 256 256 256 256 256 256 256 256 255 255
243 247 249 249 253 255 256 256 256 256 256 256 257 257 257 257 257 257 257 257 256 256 255 255 255 255 255 255 255 255 255 255 255 255 255 255 255 255 255 255 255 254 254 254
250 254 253 254 254 255 255 256 255 255 256 257 256 257 256 256 256 256 256 255 255 255 255 255 255 255 255 254 254 254 254 254 255 254 254 254 254 254 254 254 253 253 253 253
Wind_Speed
15 11 16 14 13 19 22 21 21 24 24 12 10 13 16 11 13 15 15 16 15 13 13 15 17 16 14 13 13 14 15 16 15 13 11 11 10 10 10 14 14 15 15 16
19 22 13 18 18 18 20 24 22 22 18 6 4 8 12 9 12 14 14 12 13 15 15 14 14 15 15 16 16 14 13 13 15 16 11 10 11 11 12 13 14 13 16 16
15 18 11 14 15 17 14 11 2 7 4 4 7 10 13 11 13 15 15 14 12 13 12 13 16 15 15 15 15 14 13 12 12 14 12 11 8 7 11 12 11 14 14 15
11 6 4 9 4 5 7 5 6 6 3 6 5 6 12 9 4 8 11 14 14 14 14 15 15 15 16 16 15 15 15 13 13 15 15 11 6 10 10 9 12 13 14 15
3 7 10 9 4 3 3 4 6 5 8 8 6 6 6 2 2 7 9 10 11 12 14 16 16 14 15 16 16 16 15 15 14 13 15 14 11 10 8 8 9 11 12 14
2 6 6 3 4 5 2 6 10 9 8 6 4 3 11 4 6 9 10 9 11 12 11 12 15 14 15 16 17 17 17 18 17 15 13 12 12 10 7 8 9 8 10 11
8 6 8 4 6 3 6 7 6 7 9 8 6 7 9 11 7 7 8 11 11 13 13 13 13 13 15 16 16 16 16 18 19 18 16 11 8 4 5 9 7 8 7 7
3 2 9 5 3 4 7 4 5 7 11 11 9 10 9 12 11 9 11 13 12 10 13 14 12 12 17 18 16 15 17 19 18 18 14 10 9 7 7 7 8 6 7 5
10 9 6 5 10 19 8 8 11 7 12 8 8 9 10 11 13 12 13 12 11 10 15 16 13 11 17 18 16 18 18 19 18 19 18 14 11 10 6 7 7 7 8 8
14 16 17 19 19 9 7 11 15 8 4 5 8 10 12 12 14 14 15 14 12 13 15 19 14 13 14 16 15 16 18 19 17 17 17 16 9 8 9 8 9 9 9 10
15 17 16 18 16 15 15 11 3 1 2 4 6 12 10 13 15 15 16 16 13 14 17 21 18 17 15 15 15 17 18 17 17 14 16 15 13 10 11 11 12 9 10 9
14 19 13 18 19 2 3 3 3 5 6 5 7 12 12 16 14 15 17 17 17 18 19 21 19 19 17 15 14 17 19 15 13 12 12 12 13 12 20 24 20 25 22 15
18 18 16 14 7 6 3 4 4 5 7 12 14 11 13 16 16 18 18 19 19 20 20 20 21 22 18 16 16 17 18 17 14 14 12 12 13 12 11 9 25 25 25 25
2 3 9 5 2 6 6 8 8 7 7 8 11 11 11 14 19 19 20 19 19 20 20 20 21 22 19 17 17 17 18 22 15 14 13 13 13 14 10 9 8 9 22 21
6 6 3 4 4 6 7 8 11 11 11 11 10 12 13 17 18 19 19 20 21 21 20 19 20 20 18 17 18 19 16 13 14 13 12 15 14 14 10 9 8 7 5 14
4 2 4 4 5 6 7 6 9 11 11 13 14 15 16 17 18 19 19 19 19 18 20 20 20 20 18 18 18 16 16 21 20 14 13 13 12 15 9 8 8 7 7 8
3 2 4 2 6 9 8 8 9 11 14 14 15 16 17 17 17 17 18 18 18 20 20 19 19 18 17 17 17 13 13 14 19 14 13 12 11 10 7 7 7 7 7 8
3 3 4 6 9 10 10 8 10 11 12 15 15 15 16 16 17 18 18 18 17 17 16 16 16 17 17 16 15 13 12 13 13 12 11 11 11 8 6 6 6 6 5 8
2 5 7 9 9 10 10 11 10 12 12 13 13 15 15 15 15 16 16 16 16 16 16 19 22 19 15 16 17 11 11 12 10 7 7 5 4 4 5 5 5 5 4 7
5 4 7 10 9 9 11 10 11 11 11 11 13 13 14 14 14 14 14 15 13 12 19 20 19 14 14 14 16 9 9 8 6 5 4 4 4 5 5 6 8 8 8 8
6 7 9 9 10 9 9 10 9 11 12 12 12 12 13 14 12 12 13 12 15 17 19 19 14 10 9 12 10 8 8 7 8 7 7 6 6 6 8 8 8 8 8 9
4 7 9 9 9 10 8 7 8 10 10 10 10 9 10 11 12 11 9 9 12 20 13 11 12 15 12 14 8 9 9 8 7 7 7 8 7 8 8 8 8 8 8 8
6 6 8 8 8 9 9 9 9 8 8 8 8 8 7 7 7 8 12 13 11 15 10 10 17 18 17 10 9 10 10 10 9 8 7 7 7 7 7 7 8 8 8 8
4 6 6 7 6 5 6 6 5 6 6 7 5 5 6 6 6 3 7 12 15 15 11 13 15 19 15 10 10 10 10 9 9 8 8 10 8 7 8 7 8 7 8 10
6 6 4 6 6 5 5 5 6 5 5 5 4 4 5 3 2 7 7 8 13 11 9 14 17 16 10 9 9 9 9 9 9 9 9 8 8 8 8 8 8 8 8 8
4 4 4 5 4 5 5 4 4 4 4 4 3 4 4 4 5 6 6 9 8 10 8 9 10 10 10 10 10 10 9 9 9 9 9 9 9 8 8 8 7 7 6 6
4 6 5 5 5 5 5 4 4 5 5 4 4 5 5 5 6 7 8 7 7 8 8 8 9 10 9 9 10 9 9 9 12 8 8 8 8 7 7 6 6 5 5 5
Wind_Direction
291 309 298 290 276 280 269 267 264 286 279 311 8 348 339 341 5 6 4 356 353 352 351 347 343 342 345 336 335 335 329 326 314 279 258 248 231 216 205 205 210 208 197 203
295 287 287 285 280 270 272 274 269 265 275 34 14 333 342 333 338 346 346 348 344 339 343 347 337 331 332 335 332 331 326 321 316 310 279 237 231 218 204 202 210 205 209 199
275 288 324 297 256 262 264 284 276 260 53 339 329 337 328 311 304 323 338 332 337 328 339 335 328 326 326 326 325 322 319 318 324 317 298 276 251 223 222 209 202 207 208 207
268 20 248 254 96 102 106 84 78 103 194 243 273 286 287 291 321 318 315 323 327 330 331 328 318 324 325 325 324 321 320 322 328 328 323 300 259 246 233 217 210 206 210 212
209 202 281 293 21 75 97 225 177 189 229 242 266 286 253 308 263 280 292 300 312 315 317 315 314 325 321 321 319 317 316 317 321 328 323 314 286 259 249 238 221 216 213 206
28 239 233 226 253 242 96 278 221 201 226 225 245 313 300 314 306 303 294 284 289 289 292 299 306 317 317 316 317 318 319 321 321 318 309 304 288 273 252 238 234 223 220 212
237 260 283 221 245 163 95 245 228 192 219 216 213 216 268 301 290 288 294 295 296 301 300 296 299 303 304 310 306 308 316 316 313 305 295 286 272 235 233 234 204 215 207 207
69 37 290 207 340 171 222 244 208 221 230 223 240 258 267 283 290 287 289 295 298 296 293 296 300 304 300 296 302 309 312 303 302 306 300 291 264 233 224 224 221 174 179 187
181 218 238 229 248 280 262 252 258 236 241 216 241 259 273 280 284 285 285 285 289 282 288 292 296 297 293 295 308 306 301 301 304 302 296 288 272 259 219 202 220 217 188 187
262 259 257 262 271 268 258 263 272 246 208 210 252 272 284 288 289 294 293 290 291 288 286 288 291 290 281 295 301 300 295 294 295 294 293 291 258 247 237 210 204 214 219 203
252 266 266 267 260 264 267 261 243 90 185 253 273 282 287 284 286 286 288 291 289 286 287 286 295 291 293 298 301 292 290 289 288 287 287 287 271 242 238 231 214 211 213 210
251 259 269 270 277 326 269 292 19 348 321 303 292 288 295 287 289 291 292 296 294 289 289 289 292 291 295 295 291 287 286 286 282 284 286 285 285 267 247 244 237 234 229 207
247 262 266 275 91 47 3 9 349 329 307 303 299 298 299 294 295 295 294 295 293 292 292 294 294 292 295 290 282 276 277 282 283 281 281 281 278 270 260 252 246 238 234 230
23 15 276 62 3 7 1 331 327 304 283 279 290 299 294 294 298 299 299 299 298 295 292 290 288 287 290 285 278 274 272 273 273 273 272 272 268 271 249 240 236 230 230 231
54 41 21 352 21 352 350 339 325 320 318 311 309 303 306 300 299 299 300 297 292 290 290 287 286 288 287 283 279 277 275 271 268 265 264 264 268 276 237 231 229 232 200 230
354 11 41 7 336 336 336 324 303 306 311 310 310 309 307 301 298 297 296 294 294 294 294 292 290 288 288 284 281 281 277 269 262 261 258 255 256 259 225 219 218 214 203 204
39 324 343 313 322 318 309 302 299 303 306 305 302 304 304 301 298 299 308 306 302 300 299 295 292 293 291 286 279 274 272 269 259 258 255 250 247 237 214 208 210 207 204 191
40 320 302 289 301 306 307 305 302 301 298 298 300 300 300 302 308 308 309 309 307 304 302 298 296 293 292 293 290 283 276 269 259 247 244 240 234 210 202 200 200 196 188 181
337 319 314 304 303 299 297 297 299 295 295 294 296 296 301 303 304 306 310 314 314 313 319 319 308 312 304 302 303 300 293 288 283 235 232 211 183 181 184 189 179 162 129 104
318 310 297 286 284 278 287 286 288 288 286 289 289 302 305 308 311 313 316 316 314 319 319 317 319 315 317 317 319 313 316 328 349 16 42 59 67 72 80 90 91 92 89 95
288 288 284 282 286 283 273 278 283 282 288 288 297 300 306 310 315 322 325 325 326 325 319 322 323 325 329 331 337 337 346 3 18 26 37 48 60 66 67 73 81 87 89 88
282 286 283 285 285 286 275 267 264 273 279 292 295 302 312 317 326 325 321 314 322 327 330 329 333 353 350 350 352 357 1 12 24 33 39 43 51 57 59 62 71 76 83 88
279 270 285 282 277 278 291 278 270 265 288 292 301 311 316 313 315 328 332 335 333 336 341 339 351 7 8 6 6 9 13 18 23 28 36 44 52 60 66 70 71 77 83 87
274 279 266 269 279 281 281 282 281 295 288 293 296 304 311 321 327 321 320 321 333 344 346 352 4 13 16 13 14 18 19 19 24 31 39 44 48 54 62 68 74 75 79 80
270 274 270 288 288 275 284 297 308 307 314 316 309 320 319 320 306 317 326 330 339 349 351 356 7 12 16 18 19 22 24 27 31 36 37 42 47 54 60 64 67 73 76 78
293 289 281 276 295 319 317 318 322 324 327 333 330 347 345 342 339 342 341 345 346 353 1 1 5 9 14 18 21 25 28 27 32 38 45 47 51 56 58 61 63 68 74 78
319 344 340 344 345 335 333 345 346 341 337 354 341 357 354 351 354 355 353 353 355 1 7 8 11 13 14 19 21 24 27 30 34 34 37 41 44 48 51 55 58 60 61 65